"Sample Date","Sample Time","Sample Value","Units","Flow Rate","Number Channels","Micron Size 0","Counts/Channel 0","Micron Size 1","Counts/Channel 1","Micron Size 2","Counts/Channel 2","Micron Size 3","Counts/Channel 3","Micron Size 4","Counts/Channel 4","Micron Size 5","Counts/Channel 5","Micron Size 6","Counts/Channel 6","Micron Size 7","Counts/Channel 7","Micron Size 8","Counts/Channel 8","Micron Size 9","Counts/Channel 9","Micron Size 10","Counts/Channel 10","Micron Size 11","Counts/Channel 11","Micron Size 12","Counts/Channel 12","Micron Size 13","Counts/Channel 13","Micron Size 14","Counts/Channel 14","Micron Size 15","Counts/Channel 15","Micron Size 16","Counts/Channel 16","Micron Size 17","Counts/Channel 17","Micron Size 18","Counts/Channel 18","Micron Size 19","Counts/Channel 19","Micron Size 20","Counts/Channel 20","Micron Size 21","Counts/Channel 21","Micron Size 22","Counts/Channel 22","Micron Size 23","Counts/Channel 23","Micron Size 24","Counts/Channel 24","Micron Size 25","Counts/Channel 25","Micron Size 26","Counts/Channel 26","Micron Size 27","Counts/Channel 27","Micron Size 28","Counts/Channel 28","Micron Size 29","Counts/Channel 29","Micron Size 30","Counts/Channel 30","Micron Size 31","Counts/Channel 31"
"05/08/08","17:00:03",1008.000,"cc",28374.678,6,0.100,797.000,0.200,177.000,0.300,28.000,0.500,6.000,1.000,0,5.000,0
"05/08/08","17:00:09",970.000,"cc",28360.176,6,0.100,788.000,0.200,161.000,0.300,15.000,0.500,5.000,1.000,1.000,5.000,0
"05/08/08","17:00:15",1055.000,"cc",28213.805,6,0.100,846.000,0.200,176.000,0.300,26.000,0.500,5.000,1.000,2.000,5.000,0
"05/08/08","17:00:21",1035.000,"cc",28370.996,6,0.100,808.000,0.200,197.000,0.300,22.000,0.500,6.000,1.000,2.000,5.000,0
"05/08/08","17:00:27",1038.000,"cc",28311.900,6,0.100,817.000,0.200,193.000,0.300,22.000,0.500,6.000,1.000,0,5.000,0
"05/08/08","17:00:33",1047.000,"cc",28325.768,6,0.100,842.000,0.200,160.000,0.300,37.000,0.500,6.000,1.000,2.000,5.000,0
"05/08/08","17:00:39",959.000,"cc",28254.740,6,0.100,764.000,0.200,161.000,0.300,29.000,0.500,3.000,1.000,2.000,5.000,0
"05/08/08","17:00:45",1007.000,"cc",28311.680,6,0.100,793.000,0.200,181.000,0.300,24.000,0.500,9.000,1.000,0,5.000,0
"05/08/08","17:00:51",1016.000,"cc",28265.848,6,0.100,785.000,0.200,196.000,0.300,27.000,0.500,6.000,1.000,2.000,5.000,0
"05/08/08","17:00:57",999.000,"cc",28339.625,6,0.100,803.000,0.200,171.000,0.300,19.000,0.500,5.000,1.000,1.000,5.000,0
"05/08/08","17:01:03",1038.000,"cc",28310.531,6,0.100,796.000,0.200,212.000,0.300,24.000,0.500,4.000,1.000,2.000,5.000,0
"05/08/08","17:01:09",1058.000,"cc",28350.389,6,0.100,836.000,0.200,181.000,0.300,39.000,0.500,1.000,1.000,1.000,5.000,0
"05/08/08","17:01:15",970.000,"cc",28308.609,6,0.100,786.000,0.200,149.000,0.300,24.000,0.500,10.000,1.000,1.000,5.000,0
"05/08/08","17:01:21",993.000,"cc",28356.768,6,0.100,777.000,0.200,183.000,0.300,29.000,0.500,4.000,1.000,0,5.000,0
"05/08/08","17:01:27",1001.000,"cc",28300.770,6,0.100,785.000,0.200,183.000,0.300,23.000,0.500,10.000,1.000,0,5.000,0
"05/08/08","17:01:33",1038.000,"cc",28312.027,6,0.100,828.000,0.200,184.000,0.300,20.000,0.500,5.000,1.000,1.000,5.000,0
"05/08/08","17:01:39",924.000,"cc",28337.973,6,0.100,695.000,0.200,203.000,0.300,22.000,0.500,3.000,1.000,1.000,5.000,0
"05/08/08","17:01:45",1003.000,"cc",28313.565,6,0.100,798.000,0.200,172.000,0.300,25.000,0.500,2.000,1.000,6.000,5.000,0
"05/08/08","17:01:51",936.000,"cc",28254.682,6,0.100,729.000,0.200,184.000,0.300,19.000,0.500,3.000,1.000,1.000,5.000,0
"05/08/08","17:01:57",995.000,"cc",28392.969,6,0.100,788.000,0.200,170.000,0.300,25.000,0.500,11.000,1.000,1.000,5.000,0
"05/08/08","17:02:03",971.000,"cc",28336.813,6,0.100,781.000,0.200,160.000,0.300,23.000,0.500,5.000,1.000,2.000,5.000,0
"05/08/08","17:02:09",969.000,"cc",28189.479,6,0.100,775.000,0.200,163.000,0.300,24.000,0.500,7.000,1.000,0,5.000,0
"05/08/08","17:02:15",969.000,"cc",28350.074,6,0.100,786.000,0.200,151.000,0.300,24.000,0.500,8.000,1.000,0,5.000,0
"05/08/08","17:02:21",960.000,"cc",28321.299,6,0.100,750.000,0.200,172.000,0.300,21.000,0.500,15.000,1.000,2.000,5.000,0
"05/08/08","17:02:27",945.000,"cc",28271.660,6,0.100,766.000,0.200,155.000,0.300,20.000,0.500,3.000,1.000,1.000,5.000,0
"05/08/08","17:02:33",946.000,"cc",28304.652,6,0.100,748.000,0.200,160.000,0.300,28.000,0.500,10.000,1.000,0,5.000,0
"05/08/08","17:02:39",945.000,"cc",28300.586,6,0.100,746.000,0.200,174.000,0.300,17.000,0.500,8.000,1.000,0,5.000,0
"05/08/08","17:02:45",899.000,"cc",28313.012,6,0.100,732.000,0.200,148.000,0.300,14.000,0.500,3.000,1.000,2.000,5.000,0
"05/08/08","17:02:51",993.000,"cc",28323.627,6,0.100,768.000,0.200,189.000,0.300,22.000,0.500,14.000,1.000,0,5.000,0
"05/08/08","17:02:57",890.000,"cc",28390.670,6,0.100,681.000,0.200,175.000,0.300,24.000,0.500,9.000,1.000,1.000,5.000,0
"05/08/08","17:03:03",891.000,"cc",28284.537,6,0.100,700.000,0.200,155.000,0.300,28.000,0.500,6.000,1.000,2.000,5.000,0
"05/08/08","17:03:09",862.000,"cc",28382.496,6,0.100,650.000,0.200,180.000,0.300,26.000,0.500,6.000,1.000,0,5.000,0
"05/08/08","17:03:15",838.000,"cc",28367.451,6,0.100,664.000,0.200,143.000,0.300,26.000,0.500,4.000,1.000,1.000,5.000,0
"05/08/08","17:03:21",902.000,"cc",28313.994,6,0.100,710.000,0.200,164.000,0.300,21.000,0.500,6.000,1.000,1.000,5.000,0
"05/08/08","17:03:27",901.000,"cc",28361.322,6,0.100,691.000,0.200,195.000,0.300,14.000,0.500,1.000,1.000,0,5.000,0
"05/08/08","17:03:33",808.000,"cc",28334.418,6,0.100,636.000,0.200,149.000,0.300,16.000,0.500,5.000,1.000,2.000,5.000,0
"05/08/08","17:03:39",876.000,"cc",28262.568,6,0.100,689.000,0.200,152.000,0.300,29.000,0.500,6.000,1.000,0,5.000,0
"05/08/08","17:03:45",889.000,"cc",28351.773,6,0.100,708.000,0.200,160.000,0.300,16.000,0.500,4.000,1.000,1.000,5.000,0
"05/08/08","17:03:51",900.000,"cc",28307.647,6,0.100,713.000,0.200,152.000,0.300,22.000,0.500,10.000,1.000,3.000,5.000,0
"05/08/08","17:03:57",868.000,"cc",28287.244,6,0.100,684.000,0.200,161.000,0.300,19.000,0.500,4.000,1.000,0,5.000,0
"05/08/08","17:04:03",849.000,"cc",28272.129,6,0.100,684.000,0.200,134.000,0.300,27.000,0.500,4.000,1.000,0,5.000,0
"05/08/08","17:04:09",851.000,"cc",28275.854,6,0.100,677.000,0.200,147.000,0.300,24.000,0.500,3.000,1.000,0,5.000,0
"05/08/08","17:04:15",806.000,"cc",28278.463,6,0.100,653.000,0.200,135.000,0.300,15.000,0.500,3.000,1.000,0,5.000,0
"05/08/08","17:04:21",857.000,"cc",28274.002,6,0.100,677.000,0.200,149.000,0.300,23.000,0.500,7.000,1.000,1.000,5.000,0
"05/08/08","17:04:27",860.000,"cc",28342.938,6,0.100,683.000,0.200,143.000,0.300,24.000,0.500,9.000,1.000,1.000,5.000,0
"05/08/08","17:04:33",862.000,"cc",28333.647,6,0.100,688.000,0.200,149.000,0.300,17.000,0.500,7.000,1.000,1.000,5.000,0
"05/08/08","17:04:39",846.000,"cc",28348.633,6,0.100,660.000,0.200,158.000,0.300,22.000,0.500,5.000,1.000,1.000,5.000,0
"05/08/08","17:04:45",809.000,"cc",28362.457,6,0.100,629.000,0.200,157.000,0.300,16.000,0.500,6.000,1.000,1.000,5.000,0
"05/08/08","17:04:51",847.000,"cc",28334.666,6,0.100,667.000,0.200,160.000,0.300,18.000,0.500,1.000,1.000,1.000,5.000,0
"05/08/08","17:04:57",822.000,"cc",28300.369,6,0.100,646.000,0.200,149.000,0.300,24.000,0.500,3.000,1.000,0,5.000,0
"05/08/08","17:05:03",810.000,"cc",28325.846,6,0.100,650.000,0.200,133.000,0.300,17.000,0.500,8.000,1.000,2.000,5.000,0
"05/08/08","17:05:09",821.000,"cc",28226.078,6,0.100,657.000,0.200,142.000,0.300,19.000,0.500,2.000,1.000,1.000,5.000,0
"05/08/08","17:05:15",783.000,"cc",28340.299,6,0.100,621.000,0.200,133.000,0.300,21.000,0.500,8.000,1.000,0,5.000,0
"05/08/08","17:05:21",837.000,"cc",28347.773,6,0.100,636.000,0.200,150.000,0.300,24.000,0.500,16.000,1.000,11.000,5.000,0
"05/08/08","17:05:27",833.000,"cc",28294.227,6,0.100,657.000,0.200,147.000,0.300,25.000,0.500,4.000,1.000,0,5.000,0
"05/08/08","17:05:33",783.000,"cc",28301.979,6,0.100,638.000,0.200,125.000,0.300,16.000,0.500,3.000,1.000,1.000,5.000,0
"05/08/08","17:05:39",731.000,"cc",28348.002,6,0.100,589.000,0.200,124.000,0.300,16.000,0.500,2.000,1.000,0,5.000,0
"05/08/08","17:05:45",798.000,"cc",28290.078,6,0.100,590.000,0.200,138.000,0.300,36.000,0.500,22.000,1.000,12.000,5.000,0
"05/08/08","17:05:51",712.000,"cc",28287.920,6,0.100,552.000,0.200,137.000,0.300,16.000,0.500,7.000,1.000,0,5.000,0
"05/08/08","17:05:57",727.000,"cc",28299.996,6,0.100,569.000,0.200,125.000,0.300,28.000,0.500,5.000,1.000,0,5.000,0
"05/08/08","17:06:03",684.000,"cc",28304.262,6,0.100,548.000,0.200,111.000,0.300,18.000,0.500,5.000,1.000,2.000,5.000,0
"05/08/08","17:06:09",747.000,"cc",28379.082,6,0.100,602.000,0.200,119.000,0.300,22.000,0.500,4.000,1.000,0,5.000,0
"05/08/08","17:06:15",665.000,"cc",28322.119,6,0.100,514.000,0.200,127.000,0.300,19.000,0.500,5.000,1.000,0,5.000,0
"05/08/08","17:06:21",681.000,"cc",28412.857,6,0.100,533.000,0.200,118.000,0.300,23.000,0.500,7.000,1.000,0,5.000,0
"05/08/08","17:06:27",624.000,"cc",28310.395,6,0.100,518.000,0.200,86.000,0.300,14.000,0.500,5.000,1.000,1.000,5.000,0
"05/08/08","17:06:33",672.000,"cc",28355.082,6,0.100,533.000,0.200,115.000,0.300,21.000,0.500,3.000,1.000,0,5.000,0
"05/08/08","17:06:39",632.000,"cc",28271.031,6,0.100,481.000,0.200,129.000,0.300,17.000,0.500,4.000,1.000,1.000,5.000,0
"05/08/08","17:06:45",658.000,"cc",28288.094,6,0.100,523.000,0.200,111.000,0.300,19.000,0.500,4.000,1.000,1.000,5.000,0
"05/08/08","17:06:51",602.000,"cc",28235.889,6,0.100,503.000,0.200,81.000,0.300,12.000,0.500,5.000,1.000,1.000,5.000,0
"05/08/08","17:06:57",623.000,"cc",28246.865,6,0.100,474.000,0.200,108.000,0.300,21.000,0.500,15.000,1.000,5.000,5.000,0
"05/08/08","17:07:03",629.000,"cc",28314.977,6,0.100,490.000,0.200,99.000,0.300,24.000,0.500,6.000,1.000,10.000,5.000,0
"05/08/08","17:07:09",547.000,"cc",28294.951,6,0.100,434.000,0.200,97.000,0.300,14.000,0.500,2.000,1.000,0,5.000,0
"05/08/08","17:07:15",551.000,"cc",28413.438,6,0.100,460.000,0.200,80.000,0.300,9.000,0.500,2.000,1.000,0,5.000,0
"05/08/08","17:07:21",500.000,"cc",28370.758,6,0.100,402.000,0.200,87.000,0.300,8.000,0.500,2.000,1.000,1.000,5.000,0
"05/08/08","17:07:27",454.000,"cc",28233.920,6,0.100,360.000,0.200,79.000,0.300,13.000,0.500,2.000,1.000,0,5.000,0
"05/08/08","17:07:33",411.000,"cc",28189.781,6,0.100,331.000,0.200,73.000,0.300,5.000,0.500,2.000,1.000,0,5.000,0
"05/08/08","17:07:39",411.000,"cc",28321.732,6,0.100,333.000,0.200,63.000,0.300,12.000,0.500,3.000,1.000,0,5.000,0
"05/08/08","17:07:45",376.000,"cc",28336.488,6,0.100,303.000,0.200,61.000,0.300,10.000,0.500,1.000,1.000,1.000,5.000,0
"05/08/08","17:07:51",341.000,"cc",28388.270,6,0.100,282.000,0.200,51.000,0.300,4.000,0.500,2.000,1.000,2.000,5.000,0
"05/08/08","17:07:57",335.000,"cc",28325.791,6,0.100,273.000,0.200,54.000,0.300,7.000,0.500,1.000,1.000,0,5.000,0
"05/08/08","17:08:03",348.000,"cc",28327.295,6,0.100,285.000,0.200,55.000,0.300,8.000,0.500,0,1.000,0,5.000,0
"05/08/08","17:08:09",327.000,"cc",28326.498,6,0.100,262.000,0.200,52.000,0.300,10.000,0.500,2.000,1.000,1.000,5.000,0
"05/08/08","17:08:15",351.000,"cc",28387.217,6,0.100,275.000,0.200,61.000,0.300,12.000,0.500,3.000,1.000,0,5.000,0
"05/08/08","17:08:21",330.000,"cc",28295.254,6,0.100,265.000,0.200,56.000,0.300,6.000,0.500,3.000,1.000,0,5.000,0
"05/08/08","17:08:27",333.000,"cc",28359.551,6,0.100,270.000,0.200,56.000,0.300,7.000,0.500,0,1.000,0,5.000,0
"05/08/08","17:08:33",354.000,"cc",28278.180,6,0.100,288.000,0.200,60.000,0.300,4.000,0.500,2.000,1.000,0,5.000,0
"05/08/08","17:08:39",350.000,"cc",28303.385,6,0.100,275.000,0.200,60.000,0.300,13.000,0.500,2.000,1.000,0,5.000,0
"05/08/08","17:08:45",361.000,"cc",28302.303,6,0.100,290.000,0.200,64.000,0.300,5.000,0.500,2.000,1.000,0,5.000,0
"05/08/08","17:08:51",357.000,"cc",28292.686,6,0.100,276.000,0.200,70.000,0.300,10.000,0.500,1.000,1.000,0,5.000,0
"05/08/08","17:08:57",351.000,"cc",28356.656,6,0.100,283.000,0.200,58.000,0.300,8.000,0.500,2.000,1.000,0,5.000,0
"05/08/08","17:09:03",308.000,"cc",28299.217,6,0.100,258.000,0.200,40.000,0.300,9.000,0.500,1.000,1.000,0,5.000,0
"05/08/08","17:09:09",259.000,"cc",28311.801,6,0.100,204.000,0.200,47.000,0.300,6.000,0.500,2.000,1.000,0,5.000,0
"05/08/08","17:09:15",294.000,"cc",28206.117,6,0.100,224.000,0.200,61.000,0.300,4.000,0.500,3.000,1.000,2.000,5.000,0
"05/08/08","17:09:21",253.000,"cc",28352.301,6,0.100,208.000,0.200,37.000,0.300,7.000,0.500,1.000,1.000,0,5.000,0
"05/08/08","17:09:27",276.000,"cc",28284.945,6,0.100,220.000,0.200,46.000,0.300,8.000,0.500,2.000,1.000,0,5.000,0
"05/08/08","17:09:33",252.000,"cc",28361.629,6,0.100,199.000,0.200,42.000,0.300,10.000,0.500,1.000,1.000,0,5.000,0
"05/08/08","17:09:39",303.000,"cc",28397.721,6,0.100,245.000,0.200,49.000,0.300,9.000,0.500,0,1.000,0,5.000,0
"05/08/08","17:09:45",251.000,"cc",28334.061,6,0.100,210.000,0.200,38.000,0.300,3.000,0.500,0,1.000,0,5.000,0
"05/08/08","17:09:51",248.000,"cc",28315.652,6,0.100,196.000,0.200,43.000,0.300,6.000,0.500,3.000,1.000,0,5.000,0
"05/08/08","17:09:57",223.000,"cc",28351.084,6,0.100,168.000,0.200,46.000,0.300,7.000,0.500,2.000,1.000,0,5.000,0
"05/08/08","17:10:03",221.000,"cc",28285.885,6,0.100,174.000,0.200,44.000,0.300,3.000,0.500,0,1.000,0,5.000,0
"05/08/08","17:10:09",240.000,"cc",28371.436,6,0.100,203.000,0.200,28.000,0.300,8.000,0.500,1.000,1.000,0,5.000,0
"05/08/08","17:10:15",229.000,"cc",28280.135,6,0.100,181.000,0.200,38.000,0.300,7.000,0.500,3.000,1.000,0,5.000,0
"05/08/08","17:10:21",213.000,"cc",28275.885,6,0.100,177.000,0.200,30.000,0.300,4.000,0.500,2.000,1.000,0,5.000,0
"05/08/08","17:10:27",203.000,"cc",28240.584,6,0.100,162.000,0.200,34.000,0.300,6.000,0.500,1.000,1.000,0,5.000,0
"05/08/08","17:10:33",194.000,"cc",28346.992,6,0.100,156.000,0.200,32.000,0.300,5.000,0.500,1.000,1.000,0,5.000,0
"05/08/08","17:10:39",208.000,"cc",28369.315,6,0.100,158.000,0.200,41.000,0.300,7.000,0.500,2.000,1.000,0,5.000,0
"05/08/08","17:10:45",179.000,"cc",28312.234,6,0.100,146.000,0.200,26.000,0.300,6.000,0.500,1.000,1.000,0,5.000,0
"05/08/08","17:10:51",201.000,"cc",28326.088,6,0.100,167.000,0.200,32.000,0.300,2.000,0.500,0,1.000,0,5.000,0
"05/08/08","17:10:57",197.000,"cc",28275.828,6,0.100,168.000,0.200,23.000,0.300,5.000,0.500,1.000,1.000,0,5.000,0
"05/08/08","17:11:03",219.000,"cc",28304.129,6,0.100,172.000,0.200,40.000,0.300,4.000,0.500,3.000,1.000,0,5.000,0
"05/08/08","17:11:09",230.000,"cc",28430.440,6,0.100,198.000,0.200,24.000,0.300,4.000,0.500,3.000,1.000,1.000,5.000,0
"05/08/08","17:11:15",209.000,"cc",28323.631,6,0.100,169.000,0.200,32.000,0.300,4.000,0.500,4.000,1.000,0,5.000,0
"05/08/08","17:11:21",237.000,"cc",28264.174,6,0.100,185.000,0.200,44.000,0.300,7.000,0.500,1.000,1.000,0,5.000,0
"05/08/08","17:11:27",222.000,"cc",28256.678,6,0.100,168.000,0.200,47.000,0.300,6.000,0.500,0,1.000,1.000,5.000,0
"05/08/08","17:11:33",234.000,"cc",28312.471,6,0.100,195.000,0.200,30.000,0.300,6.000,0.500,3.000,1.000,0,5.000,0
"05/08/08","17:11:39",198.000,"cc",28337.068,6,0.100,162.000,0.200,28.000,0.300,5.000,0.500,3.000,1.000,0,5.000,0
"05/08/08","17:11:45",235.000,"cc",28259.432,6,0.100,194.000,0.200,33.000,0.300,4.000,0.500,3.000,1.000,1.000,5.000,0
"05/08/08","17:11:51",248.000,"cc",28345.779,6,0.100,205.000,0.200,38.000,0.300,5.000,0.500,0,1.000,0,5.000,0
"05/08/08","17:11:57",243.000,"cc",28321.231,6,0.100,199.000,0.200,35.000,0.300,7.000,0.500,1.000,1.000,1.000,5.000,0
"05/08/08","17:12:03",261.000,"cc",28303.467,6,0.100,206.000,0.200,49.000,0.300,6.000,0.500,0,1.000,0,5.000,0
"05/08/08","17:12:09",289.000,"cc",28255.068,6,0.100,235.000,0.200,45.000,0.300,5.000,0.500,3.000,1.000,1.000,5.000,0
"05/08/08","17:12:15",243.000,"cc",28346.117,6,0.100,198.000,0.200,38.000,0.300,6.000,0.500,1.000,1.000,0,5.000,0
"05/08/08","17:12:21",286.000,"cc",28358.949,6,0.100,231.000,0.200,46.000,0.300,8.000,0.500,1.000,1.000,0,5.000,0
"05/08/08","17:12:27",286.000,"cc",28372.703,6,0.100,223.000,0.200,52.000,0.300,6.000,0.500,5.000,1.000,0,5.000,0
"05/08/08","17:12:33",315.000,"cc",28285.445,6,0.100,266.000,0.200,40.000,0.300,9.000,0.500,0,1.000,0,5.000,0
"05/08/08","17:12:39",323.000,"cc",28248.549,6,0.100,266.000,0.200,46.000,0.300,9.000,0.500,2.000,1.000,0,5.000,0
"05/08/08","17:12:45",360.000,"cc",28345.926,6,0.100,285.000,0.200,59.000,0.300,13.000,0.500,0,1.000,3.000,5.000,0
"05/08/08","17:12:51",316.000,"cc",28315.660,6,0.100,252.000,0.200,54.000,0.300,7.000,0.500,2.000,1.000,1.000,5.000,0
"05/08/08","17:12:57",367.000,"cc",28336.074,6,0.100,303.000,0.200,56.000,0.300,6.000,0.500,1.000,1.000,1.000,5.000,0
"05/08/08","17:13:03",347.000,"cc",28333.887,6,0.100,286.000,0.200,50.000,0.300,9.000,0.500,2.000,1.000,0,5.000,0
"05/08/08","17:13:09",322.000,"cc",28401.236,6,0.100,257.000,0.200,56.000,0.300,6.000,0.500,3.000,1.000,0,5.000,0
"05/08/08","17:13:15",336.000,"cc",28278.676,6,0.100,271.000,0.200,58.000,0.300,6.000,0.500,1.000,1.000,0,5.000,0
"05/08/08","17:13:21",341.000,"cc",28241.481,6,0.100,274.000,0.200,62.000,0.300,4.000,0.500,1.000,1.000,0,5.000,0
"05/08/08","17:13:27",335.000,"cc",28328.266,6,0.100,271.000,0.200,50.000,0.300,8.000,0.500,5.000,1.000,1.000,5.000,0
"05/08/08","17:13:33",336.000,"cc",28290.893,6,0.100,269.000,0.200,56.000,0.300,10.000,0.500,1.000,1.000,0,5.000,0
"05/08/08","17:13:39",314.000,"cc",28354.525,6,0.100,239.000,0.200,56.000,0.300,17.000,0.500,2.000,1.000,0,5.000,0
"05/08/08","17:13:45",386.000,"cc",28353.510,6,0.100,313.000,0.200,62.000,0.300,7.000,0.500,3.000,1.000,1.000,5.000,0
"05/08/08","17:13:51",364.000,"cc",28331.879,6,0.100,289.000,0.200,58.000,0.300,12.000,0.500,5.000,1.000,0,5.000,0
"05/08/08","17:13:57",356.000,"cc",28302.887,6,0.100,289.000,0.200,60.000,0.300,5.000,0.500,2.000,1.000,0,5.000,0
"05/08/08","17:14:03",393.000,"cc",28196.020,6,0.100,311.000,0.200,66.000,0.300,10.000,0.500,6.000,1.000,0,5.000,0
"05/08/08","17:14:09",354.000,"cc",28318.662,6,0.100,294.000,0.200,52.000,0.300,6.000,0.500,2.000,1.000,0,5.000,0
"05/08/08","17:14:15",379.000,"cc",28353.793,6,0.100,315.000,0.200,48.000,0.300,14.000,0.500,0,1.000,2.000,5.000,0
"05/08/08","17:14:21",312.000,"cc",28378.815,6,0.100,253.000,0.200,49.000,0.300,7.000,0.500,1.000,1.000,2.000,5.000,0
"05/08/08","17:14:27",379.000,"cc",28274.654,6,0.100,289.000,0.200,79.000,0.300,6.000,0.500,5.000,1.000,0,5.000,0
"05/08/08","17:14:33",340.000,"cc",28302.813,6,0.100,263.000,0.200,63.000,0.300,12.000,0.500,2.000,1.000,0,5.000,0
"05/08/08","17:14:39",370.000,"cc",28301.363,6,0.100,299.000,0.200,58.000,0.300,11.000,0.500,0,1.000,2.000,5.000,0
"05/08/08","17:14:45",346.000,"cc",28331.932,6,0.100,276.000,0.200,63.000,0.300,5.000,0.500,2.000,1.000,0,5.000,0
"05/08/08","17:14:51",366.000,"cc",28350.006,6,0.100,296.000,0.200,50.000,0.300,15.000,0.500,5.000,1.000,0,5.000,0
"05/08/08","17:14:57",351.000,"cc",28366.606,6,0.100,272.000,0.200,62.000,0.300,14.000,0.500,3.000,1.000,0,5.000,0
"05/08/08","17:15:03",322.000,"cc",28247.148,6,0.100,262.000,0.200,41.000,0.300,15.000,0.500,3.000,1.000,1.000,5.000,0
"05/08/08","17:15:09",310.000,"cc",28290.371,6,0.100,237.000,0.200,63.000,0.300,7.000,0.500,3.000,1.000,0,5.000,0
"05/08/08","17:15:15",344.000,"cc",28303.248,6,0.100,280.000,0.200,55.000,0.300,8.000,0.500,1.000,1.000,0,5.000,0
"05/08/08","17:15:21",309.000,"cc",28350.893,6,0.100,249.000,0.200,51.000,0.300,8.000,0.500,1.000,1.000,0,5.000,0
"05/08/08","17:15:27",337.000,"cc",28295.986,6,0.100,276.000,0.200,53.000,0.300,5.000,0.500,3.000,1.000,0,5.000,0
"05/08/08","17:15:33",308.000,"cc",28306.402,6,0.100,248.000,0.200,53.000,0.300,5.000,0.500,2.000,1.000,0,5.000,0
"05/08/08","17:15:39",354.000,"cc",28332.832,6,0.100,290.000,0.200,55.000,0.300,8.000,0.500,1.000,1.000,0,5.000,0
"05/08/08","17:15:45",344.000,"cc",28275.582,6,0.100,280.000,0.200,55.000,0.300,8.000,0.500,0,1.000,1.000,5.000,0
"05/08/08","17:15:51",328.000,"cc",28339.254,6,0.100,268.000,0.200,49.000,0.300,6.000,0.500,3.000,1.000,2.000,5.000,0
"05/08/08","17:15:57",346.000,"cc",28333.191,6,0.100,281.000,0.200,51.000,0.300,11.000,0.500,3.000,1.000,0,5.000,0
"05/08/08","17:16:03",334.000,"cc",28327.545,6,0.100,259.000,0.200,61.000,0.300,10.000,0.500,4.000,1.000,0,5.000,0
"05/08/08","17:16:09",379.000,"cc",28319.486,6,0.100,303.000,0.200,59.000,0.300,15.000,0.500,2.000,1.000,0,5.000,0
"05/08/08","17:16:15",368.000,"cc",28252.107,6,0.100,307.000,0.200,49.000,0.300,9.000,0.500,3.000,1.000,0,5.000,0
"05/08/08","17:16:21",355.000,"cc",28270.361,6,0.100,288.000,0.200,56.000,0.300,7.000,0.500,3.000,1.000,1.000,5.000,0
"05/08/08","17:16:27",378.000,"cc",28329.887,6,0.100,309.000,0.200,56.000,0.300,10.000,0.500,3.000,1.000,0,5.000,0
"05/08/08","17:16:33",331.000,"cc",28297.481,6,0.100,263.000,0.200,58.000,0.300,8.000,0.500,2.000,1.000,0,5.000,0
"05/08/08","17:16:39",357.000,"cc",28301.383,6,0.100,289.000,0.200,58.000,0.300,8.000,0.500,2.000,1.000,0,5.000,0
"05/08/08","17:16:45",350.000,"cc",28354.859,6,0.100,288.000,0.200,51.000,0.300,9.000,0.500,2.000,1.000,0,5.000,0
"05/08/08","17:16:51",365.000,"cc",28324.053,6,0.100,303.000,0.200,55.000,0.300,6.000,0.500,1.000,1.000,0,5.000,0
"05/08/08","17:16:57",360.000,"cc",28300.941,6,0.100,297.000,0.200,53.000,0.300,9.000,0.500,1.000,1.000,0,5.000,0
"05/08/08","17:17:03",413.000,"cc",28305.830,6,0.100,331.000,0.200,72.000,0.300,8.000,0.500,1.000,1.000,1.000,5.000,0
"05/08/08","17:17:09",391.000,"cc",28363.572,6,0.100,316.000,0.200,62.000,0.300,7.000,0.500,5.000,1.000,1.000,5.000,0
"05/08/08","17:17:15",407.000,"cc",28325.469,6,0.100,328.000,0.200,68.000,0.300,10.000,0.500,0,1.000,1.000,5.000,0
"05/08/08","17:17:21",398.000,"cc",28355.941,6,0.100,323.000,0.200,57.000,0.300,11.000,0.500,6.000,1.000,1.000,5.000,0
"05/08/08","17:17:27",395.000,"cc",28184.945,6,0.100,312.000,0.200,72.000,0.300,8.000,0.500,2.000,1.000,1.000,5.000,0
"05/08/08","17:17:33",428.000,"cc",28367.041,6,0.100,342.000,0.200,78.000,0.300,5.000,0.500,1.000,1.000,2.000,5.000,0
"05/08/08","17:17:39",424.000,"cc",28377.959,6,0.100,321.000,0.200,93.000,0.300,6.000,0.500,3.000,1.000,1.000,5.000,0
"05/08/08","17:17:45",371.000,"cc",28315.547,6,0.100,287.000,0.200,73.000,0.300,7.000,0.500,4.000,1.000,0,5.000,0
"05/08/08","17:17:51",386.000,"cc",28270.693,6,0.100,299.000,0.200,73.000,0.300,9.000,0.500,5.000,1.000,0,5.000,0
"05/08/08","17:17:57",377.000,"cc",28325.801,6,0.100,298.000,0.200,59.000,0.300,16.000,0.500,2.000,1.000,2.000,5.000,0
"05/08/08","17:18:03",390.000,"cc",28375.865,6,0.100,301.000,0.200,70.000,0.300,13.000,0.500,6.000,1.000,0,5.000,0
"05/08/08","17:18:09",357.000,"cc",28378.496,6,0.100,279.000,0.200,64.000,0.300,10.000,0.500,4.000,1.000,0,5.000,0
"05/08/08","17:18:15",393.000,"cc",28289.188,6,0.100,308.000,0.200,79.000,0.300,3.000,0.500,3.000,1.000,0,5.000,0
"05/08/08","17:18:21",391.000,"cc",28219.147,6,0.100,316.000,0.200,67.000,0.300,4.000,0.500,4.000,1.000,0,5.000,0
"05/08/08","17:18:27",378.000,"cc",28311.639,6,0.100,303.000,0.200,63.000,0.300,8.000,0.500,4.000,1.000,0,5.000,0
"05/08/08","17:18:33",383.000,"cc",28377.471,6,0.100,313.000,0.200,56.000,0.300,12.000,0.500,2.000,1.000,0,5.000,0
"05/08/08","17:18:39",397.000,"cc",28352.826,6,0.100,316.000,0.200,68.000,0.300,12.000,0.500,1.000,1.000,0,5.000,0
"05/08/08","17:18:45",402.000,"cc",28306.910,6,0.100,319.000,0.200,71.000,0.300,7.000,0.500,4.000,1.000,1.000,5.000,0
"05/08/08","17:18:51",386.000,"cc",28297.588,6,0.100,322.000,0.200,57.000,0.300,7.000,0.500,0,1.000,0,5.000,0
"05/08/08","17:18:57",416.000,"cc",28361.031,6,0.100,332.000,0.200,70.000,0.300,11.000,0.500,3.000,1.000,0,5.000,0
"05/08/08","17:19:03",400.000,"cc",28288.139,6,0.100,320.000,0.200,63.000,0.300,14.000,0.500,3.000,1.000,0,5.000,0
"05/08/08","17:19:09",357.000,"cc",28270.641,6,0.100,295.000,0.200,54.000,0.300,6.000,0.500,2.000,1.000,0,5.000,0
"05/08/08","17:19:15",355.000,"cc",28329.223,6,0.100,276.000,0.200,65.000,0.300,11.000,0.500,3.000,1.000,0,5.000,0
"05/08/08","17:19:21",352.000,"cc",28305.508,6,0.100,281.000,0.200,58.000,0.300,8.000,0.500,5.000,1.000,0,5.000,0